EN

Hourly Weather Kyslyts'ke

Today, 5 August, Thursday

Time Temperature Precipitation Wind Pressure Humidity
00:00 +18°C° 0.3 mm 2 mps 738 mmHg 89%
01:00 +18°C° 0.3 mm 2 mps 737 mmHg 89%
02:00 +18°C° 0 mm 2 mps 737 mmHg 90%
03:00 +18°C° 0 mm 2 mps 737 mmHg 90%
04:00 +18°C° 0 mm 2 mps 737 mmHg 90%
05:00 +19°C° 0 mm 1 mps 736 mmHg 89%
06:00 +19°C° 0 mm 2 mps 736 mmHg 86%
07:00 +20°C° 0 mm 2 mps 736 mmHg 82%
08:00 +23°C° 0 mm 2 mps 736 mmHg 79%
09:00 +24°C° 0.2 mm 3 mps 736 mmHg 73%
10:00 +26°C° 0.2 mm 4 mps 736 mmHg 67%
11:00 +28°C° 0.2 mm 5 mps 736 mmHg 61%
12:00 +28°C° 0.4 mm 5 mps 736 mmHg 57%
13:00 +29°C° 0.4 mm 5 mps 735 mmHg 53%
14:00 +30°C° 0.4 mm 5 mps 735 mmHg 50%
15:00 +30°C° 0 mm 5 mps 734 mmHg 50%
16:00 +30°C° 0 mm 4 mps 734 mmHg 50%
17:00 +32°C° 0 mm 4 mps 733 mmHg 51%
18:00 +29°C° 0 mm 4 mps 732 mmHg 56%
19:00 +27°C° 0 mm 4 mps 732 mmHg 61%
20:00 +25°C° 0 mm 5 mps 731 mmHg 66%
21:00 +23°C° 1.2 mm 4 mps 731 mmHg 74%
22:00 +22°C° 1.2 mm 3 mps 731 mmHg 82%
23:00 +21°C° 1.2 mm 3 mps 731 mmHg 91%

Tomorrow, 6 August, Friday

Time Temperature Precipitation Wind Pressure Humidity
00:00 +21°C° 0.6 mm 4 mps 731 mmHg 90%
01:00 +21°C° 0.6 mm 5 mps 731 mmHg 90%
02:00 +21°C° 0.6 mm 6 mps 730 mmHg 90%
03:00 +21°C° 0.7 mm 5 mps 730 mmHg 92%
04:00 +21°C° 0.7 mm 4 mps 729 mmHg 93%
05:00 +21°C° 0.7 mm 4 mps 729 mmHg 95%
06:00 +22°C° 0.3 mm 4 mps 729 mmHg 91%
07:00 +23°C° 0.3 mm 5 mps 729 mmHg 86%
08:00 +24°C° 0.3 mm 6 mps 729 mmHg 82%
09:00 +26°C° 1 mm 6 mps 729 mmHg 79%
10:00 +26°C° 1 mm 6 mps 729 mmHg 75%
11:00 +27°C° 1 mm 6 mps 730 mmHg 72%
12:00 +27°C° 0.7 mm 4 mps 729 mmHg 68%
13:00 +28°C° 0.7 mm 3 mps 729 mmHg 64%
14:00 +28°C° 0.7 mm 2 mps 729 mmHg 60%
15:00 +28°C° 0.4 mm 2 mps 729 mmHg 62%
16:00 +27°C° 0.4 mm 2 mps 729 mmHg 64%
17:00 +27°C° 0.4 mm 1 mps 729 mmHg 66%
18:00 +24°C° 2.3 mm 2 mps 729 mmHg 75%
19:00 +21°C° 2.3 mm 3 mps 730 mmHg 83%
20:00 +18°C° 2.3 mm 4 mps 731 mmHg 92%
21:00 +18°C° 0.1 mm 4 mps 731 mmHg 92%
22:00 +18°C° 0.1 mm 3 mps 731 mmHg 93%
23:00 +18°C° 0.1 mm 3 mps 731 mmHg 93%

Day after tomorrow, 7 August, Saturday

Time Temperature Precipitation Wind Pressure Humidity
00:00 +17°C° 0 mm 3 mps 732 mmHg 93%
01:00 +17°C° 0 mm 4 mps 732 mmHg 94%
02:00 +15°C° 0 mm 4 mps 732 mmHg 94%
03:00 +15°C° 0 mm 4 mps 733 mmHg 94%
04:00 +14°C° 0 mm 4 mps 733 mmHg 95%
05:00 +14°C° 0 mm 3 mps 734 mmHg 96%
06:00 +15°C° 0 mm 4 mps 734 mmHg 90%
07:00 +17°C° 0 mm 4 mps 734 mmHg 85%
08:00 +18°C° 0 mm 4 mps 735 mmHg 79%
09:00 +19°C° 0 mm 4 mps 735 mmHg 70%
10:00 +21°C° 0 mm 5 mps 735 mmHg 61%
11:00 +22°C° 0 mm 5 mps 736 mmHg 52%
12:00 +23°C° 0 mm 4 mps 736 mmHg 50%
13:00 +25°C° 0 mm 4 mps 736 mmHg 49%
14:00 +25°C° 0 mm 4 mps 736 mmHg 48%
15:00 +25°C° 0 mm 4 mps 736 mmHg 48%
16:00 +25°C° 0 mm 3 mps 736 mmHg 49%
17:00 +25°C° 0 mm 3 mps 736 mmHg 49%
18:00 +24°C° 0 mm 3 mps 737 mmHg 54%
19:00 +21°C° 0 mm 2 mps 737 mmHg 59%
20:00 +19°C° 0 mm 2 mps 737 mmHg 64%
21:00 +20°C° 0 mm 1 mps 737 mmHg 64%
22:00 +19°C° 0 mm 1 mps 737 mmHg 65%
23:00 +17°C° 0 mm 0 mps 738 mmHg 66%

8 August, Sunday

Time Temperature Precipitation Wind Pressure Humidity
00:00 +16°C° 0 mm 0 mps 738 mmHg 66%
01:00 +16°C° 0 mm 0 mps 738 mmHg 66%
02:00 +18°C° 0 mm 1 mps 738 mmHg 67%
03:00 +16°C° 0 mm 0 mps 738 mmHg 68%
04:00 +15°C° 0 mm 0 mps 738 mmHg 69%
05:00 +15°C° 0 mm 0 mps 738 mmHg 70%
06:00 +19°C° 0 mm 1 mps 739 mmHg 66%
07:00 +21°C° 0 mm 1 mps 739 mmHg 62%
08:00 +23°C° 0 mm 1 mps 739 mmHg 58%
09:00 +24°C° 0 mm 1 mps 739 mmHg 55%
10:00 +25°C° 0 mm 1 mps 739 mmHg 51%
11:00 +27°C° 0 mm 2 mps 740 mmHg 48%
12:00 +27°C° 0 mm 2 mps 740 mmHg 46%
13:00 +28°C° 0 mm 2 mps 739 mmHg 43%
14:00 +29°C° 0 mm 1 mps 739 mmHg 41%
15:00 +29°C° 0 mm 1 mps 739 mmHg 41%
16:00 +29°C° 0 mm 1 mps 739 mmHg 42%
17:00 +29°C° 0 mm 1 mps 739 mmHg 42%
18:00 +27°C° 0 mm 1 mps 739 mmHg 47%
19:00 +25°C° 0 mm 1 mps 739 mmHg 53%
20:00 +23°C° 0 mm 1 mps 739 mmHg 58%
21:00 +22°C° 0 mm 1 mps 739 mmHg 59%
22:00 +21°C° 0 mm 2 mps 740 mmHg 60%
23:00 +20°C° 0 mm 2 mps 740 mmHg 61%

9 August, Monday

Time Temperature Precipitation Wind Pressure Humidity
00:00 +20°C° 0 mm 2 mps 740 mmHg 62%
01:00 +19°C° 0 mm 2 mps 740 mmHg 63%
02:00 +19°C° 0 mm 2 mps 739 mmHg 64%
03:00 +19°C° 0 mm 3 mps 739 mmHg 65%
04:00 +19°C° 0 mm 3 mps 739 mmHg 66%
05:00 +18°C° 0 mm 3 mps 739 mmHg 67%
06:00 +20°C° 0 mm 3 mps 739 mmHg 64%
07:00 +22°C° 0 mm 3 mps 739 mmHg 60%
08:00 +25°C° 0 mm 3 mps 740 mmHg 57%
09:00 +26°C° 0 mm 3 mps 740 mmHg 53%
10:00 +28°C° 0 mm 3 mps 740 mmHg 48%
11:00 +29°C° 0 mm 3 mps 740 mmHg 43%
12:00 +30°C° 0 mm 3 mps 740 mmHg 41%
13:00 +31°C° 0 mm 3 mps 740 mmHg 39%
14:00 +33°C° 0 mm 3 mps 740 mmHg 37%
15:00 +33°C° 0 mm 3 mps 740 mmHg 39%
16:00 +32°C° 0 mm 2 mps 740 mmHg 41%
17:00 +32°C° 0 mm 2 mps 739 mmHg 42%
18:00 +30°C° 0.1 mm 1 mps 739 mmHg 47%
19:00 +27°C° 0.1 mm 1 mps 740 mmHg 52%
20:00 +25°C° 0.1 mm 1 mps 740 mmHg 56%
21:00 +24°C° 0.6 mm 1 mps 740 mmHg 63%
22:00 +23°C° 0.6 mm 2 mps 740 mmHg 70%
23:00 +21°C° 0.6 mm 2 mps 740 mmHg 76%

10 August, Tuesday

Time Temperature Precipitation Wind Pressure Humidity
00:00 +21°C° 0.3 mm 2 mps 740 mmHg 80%
01:00 +20°C° 0.3 mm 2 mps 740 mmHg 84%
02:00 +20°C° 0.3 mm 2 mps 740 mmHg 87%
03:00 +19°C° 0.4 mm 2 mps 740 mmHg 89%
04:00 +19°C° 0.4 mm 2 mps 740 mmHg 91%
05:00 +18°C° 0.4 mm 2 mps 739 mmHg 93%
06:00 +19°C° 0.2 mm 2 mps 740 mmHg 90%
07:00 +20°C° 0.2 mm 3 mps 740 mmHg 87%
08:00 +21°C° 0.2 mm 3 mps 740 mmHg 84%
09:00 +24°C° 0.1 mm 3 mps 740 mmHg 79%
10:00 +25°C° 0.1 mm 2 mps 740 mmHg 74%
11:00 +26°C° 0.1 mm 2 mps 740 mmHg 69%
12:00 +25°C° 0.5 mm 3 mps 740 mmHg 74%
13:00 +23°C° 0.5 mm 4 mps 740 mmHg 80%
14:00 +22°C° 0.5 mm 5 mps 740 mmHg 85%
15:00 +21°C° 1.3 mm 4 mps 740 mmHg 88%
16:00 +20°C° 1.3 mm 3 mps 740 mmHg 91%
17:00 +20°C° 1.3 mm 2 mps 740 mmHg 94%
18:00 +19°C° 0.3 mm 2 mps 740 mmHg 95%
19:00 +19°C° 0.3 mm 3 mps 739 mmHg 95%
20:00 +19°C° 0.3 mm 3 mps 739 mmHg 96%
21:00 +19°C° 0 mm 3 mps 739 mmHg 95%
22:00 +18°C° 0 mm 3 mps 739 mmHg 95%
23:00 +18°C° 0 mm 3 mps 740 mmHg 94%
Show more